Flag for Germany Weather past 2 weeks in Oranienburg, Brandenburg, Germany

Now
43 °F

Light rain. Overcast.


Feels Like: 41 °F
Forecast: 38 / 50 °F
Wind: 3 mph from Southwest

Location: Berlin-Tegel

Current Time: Mar 27, 2015 at 6:47:47 AM

Latest Report: Mar 27, 2015 at 6:00 AM


Visibility: 4 mi

Pressure: 29.81 "Hg

Humidity: 90%

Dew point: 40 °F

Location of OranienburgLocation

Historic Weather in Oranienburg — Graph

°F

Oranienburg temperature yesterday

Maximum temperature yesterday: 53 °F (at 12:00 AM)
Minimum temperature yesterday: 43 °F (at 8:00 PM)
Average temperature yesterday: 47 °F

Past Weeks' High & Low Weather Summary

 TemperatureHumidityPressure
High62 °F (Mar 17, 4:00 PM)97% (Mar 21, 6:00 AM)30.51 "Hg (Mar 21, 6:00 AM)
Low28 °F (Mar 20, 6:00 AM)17% (Mar 18, 2:00 PM)29.64 "Hg (Mar 26, 4:00 AM)
Average44 °F67%30.20 "Hg
* Reported Mar 12 6:00 AM — Mar 27 6:00 AM, Oranienburg, Weather by CustomWeather, © 2015

Note: Actual official high and low records may vary slightly from our data, if they occured in-between our weather recording intervals... More about our weather records

Advertising

Oranienburg weather history for previous 24 hours

 ConditionsComfort  
Time TempWeatherWind HumidityBarometerVisibility
6:00 AM
Fri, Mar 27
43 °FLight rain. Overcast.3 mph90%29.81 "Hg4 mi
5:00 AM43 °FLight rain. Overcast.2 mph92%29.79 "Hg6 mi
4:00 AM43 °FOvercast.2 mph93%29.78 "Hg7 mi
3:00 AM43 °FOvercast.1 mph91%29.78 "Hg7 mi
2:00 AM43 °FOvercast.No wind90%29.78 "Hg7 mi
1:00 AM43 °FLight rain. Overcast.1 mph90%29.78 "Hg8 mi
12:00 AM43 °FOvercast.1 mph91%29.78 "Hg9 mi
11:00 PM
Thu, Mar 26
43 °FOvercast.1 mph88%29.78 "Hg9 mi
10:00 PM43 °FLight rain. Overcast.1 mph88%29.78 "Hg9 mi
9:00 PM43 °FLight rain. Overcast.1 mph90%29.78 "Hg10 mi
8:00 PM43 °FLight rain. Overcast.1 mph88%29.77 "Hg9 mi
7:00 PM44 °FLight rain. Overcast.2 mph84%29.77 "Hg5 mi
6:00 PM44 °FOvercast.3 mph86%29.77 "Hg5 mi
5:00 PM46 °FOvercast.3 mph82%29.76 "Hg6 mi
4:00 PM46 °FOvercast.3 mph80%29.75 "Hg6 mi
3:00 PM46 °FOvercast.5 mph81%29.73 "Hg5 mi
2:00 PM47 °FOvercast.5 mph84%29.73 "Hg5 mi
1:00 PM46 °FLight rain. Overcast.6 mph84%29.72 "Hg4 mi
12:00 PM46 °FLight rain. Low clouds.6 mph87%29.71 "Hg4 mi
11:00 AM45 °FLight rain. Low clouds.5 mph91%29.70 "Hg2 mi
10:00 AM45 °FLight rain. Overcast.3 mph90%29.70 "Hg2 mi
9:00 AM46 °FLight rain. Overcast.5 mph83%29.69 "Hg3 mi
8:00 AM47 °FOvercast.5 mph79%29.67 "Hg7 mi
7:00 AM50 °FOvercast.1 mph71%29.66 "Hg9 mi
6:00 AM49 °FOvercast.2 mph73%29.65 "Hg6 mi
Weather by CustomWeather, © 2015

See weather overviewHow to use our weather pages